Time,TemperatureF,DewpointF,PressureIn,WindDirection,WindDirectionDegrees,WindSpeedMPH,WindSpeedGustMPH,Humidity,HourlyPrecipIn,Conditions,Clouds,dailyrainin,SoftwareType,DateUTC
2013-04-10 00:03:00,76.0,48.0,-100.00,SSW,207,9.0,-999.0,37,-99.99,,,-99.99,,2013-04-10 04:03:00,
2013-04-10 00:13:00,76.0,48.0,-100.00,SSW,207,9.0,-999.0,37,-99.99,,,-99.99,,2013-04-10 04:13:00,
2013-04-10 00:23:00,76.0,48.0,-100.00,SSW,205,10.0,-999.0,37,-99.99,,,-99.99,,2013-04-10 04:23:00,
2013-04-10 00:33:00,76.0,48.0,-100.00,SSW,203,10.0,-999.0,38,-99.99,,,-99.99,,2013-04-10 04:33:00,
2013-04-10 00:43:00,76.0,48.0,-100.00,SSW,203,10.0,-999.0,38,-99.99,,,-99.99,,2013-04-10 04:43:00,
2013-04-10 00:53:00,75.0,49.0,-100.00,SSW,198,9.0,-999.0,39,-99.99,,,-99.99,,2013-04-10 04:53:00,
2013-04-10 01:03:00,75.0,49.0,-100.00,SSW,197,9.0,-999.0,40,-99.99,,,-99.99,,2013-04-10 05:03:00,
2013-04-10 01:13:00,75.0,49.0,-100.00,SSW,197,9.0,-999.0,40,-99.99,,,-99.99,,2013-04-10 05:13:00,
2013-04-10 01:23:00,75.0,49.0,-100.00,SSW,203,8.0,-999.0,40,-99.99,,,-99.99,,2013-04-10 05:23:00,
2013-04-10 01:33:00,75.0,49.0,-100.00,SSW,211,7.0,-999.0,40,-99.99,,,-99.99,,2013-04-10 05:33:00,
2013-04-10 01:42:00,75.0,49.0,-100.00,SSW,211,7.0,-999.0,40,-99.99,,,-99.99,,2013-04-10 05:42:00,
2013-04-10 01:53:00,75.0,49.0,-100.00,SSW,213,8.0,-999.0,40,-99.99,,,-99.99,,2013-04-10 05:53:00,
2013-04-10 02:03:00,75.0,49.0,-100.00,SW,215,7.0,-999.0,40,-99.99,,,-99.99,,2013-04-10 06:03:00,
2013-04-10 02:12:00,75.0,49.0,-100.00,SW,215,7.0,-999.0,40,-99.99,,,-99.99,,2013-04-10 06:12:00,
2013-04-10 02:22:00,75.0,49.0,-100.00,SW,232,6.0,-999.0,40,-99.99,,,-99.99,,2013-04-10 06:22:00,
2013-04-10 02:32:00,75.0,49.0,-100.00,SW,230,8.0,-999.0,39,-99.99,,,-99.99,,2013-04-10 06:32:00,
2013-04-10 02:42:00,75.0,49.0,-100.00,SW,230,8.0,-999.0,39,-99.99,,,-99.99,,2013-04-10 06:42:00,
2013-04-10 02:52:00,75.0,49.0,-100.00,SW,222,7.0,-999.0,40,-99.99,,,-99.99,,2013-04-10 06:52:00,
2013-04-10 03:02:00,74.0,49.0,-100.00,SSW,210,5.0,-999.0,41,-99.99,,,-99.99,,2013-04-10 07:02:00,
2013-04-10 03:12:00,74.0,49.0,-100.00,SSW,210,5.0,-999.0,41,-99.99,,,-99.99,,2013-04-10 07:12:00,
2013-04-10 03:22:00,74.0,49.0,-100.00,SSW,200,5.0,-999.0,42,-99.99,,,-99.99,,2013-04-10 07:22:00,
2013-04-10 03:32:00,73.0,49.0,-100.00,SSW,199,6.0,-999.0,43,-99.99,,,-99.99,,2013-04-10 07:32:00,
2013-04-10 03:42:00,73.0,49.0,-100.00,SSW,199,6.0,-999.0,43,-99.99,,,-99.99,,2013-04-10 07:42:00,
2013-04-10 03:52:00,73.0,50.0,-100.00,SSW,208,7.0,-999.0,43,-99.99,,,-99.99,,2013-04-10 07:52:00,
2013-04-10 04:02:00,73.0,50.0,-100.00,SSW,206,8.0,-999.0,44,-99.99,,,-99.99,,2013-04-10 08:02:00,
2013-04-10 04:12:00,73.0,50.0,-100.00,SSW,206,8.0,-999.0,44,-99.99,,,-99.99,,2013-04-10 08:12:00,
2013-04-10 04:22:00,72.0,50.0,-100.00,SSW,203,8.0,-999.0,46,-99.99,,,-99.99,,2013-04-10 08:22:00,
2013-04-10 04:32:00,71.0,51.0,-100.00,SSW,206,8.0,-999.0,48,-99.99,,,-99.99,,2013-04-10 08:32:00,
2013-04-10 04:42:00,71.0,51.0,-100.00,SSW,206,8.0,-999.0,48,-99.99,,,-99.99,,2013-04-10 08:42:00,
2013-04-10 04:52:00,71.0,51.0,-100.00,SW,218,6.0,-999.0,48,-99.99,,,-99.99,,2013-04-10 08:52:00,
2013-04-10 05:02:00,71.0,51.0,-100.00,SW,218,6.0,-999.0,48,-99.99,,,-99.99,,2013-04-10 09:02:00,
2013-04-10 05:12:00,71.0,51.0,-100.00,SW,218,6.0,-999.0,48,-99.99,,,-99.99,,2013-04-10 09:12:00,
2013-04-10 05:22:00,71.0,51.0,-100.00,SW,223,7.0,-999.0,48,-99.99,,,-99.99,,2013-04-10 09:22:00,
2013-04-10 05:32:00,72.0,50.0,-100.00,WSW,250,7.0,-999.0,47,-99.99,,,-99.99,,2013-04-10 09:32:00,
2013-04-10 05:43:00,72.0,50.0,-100.00,WSW,250,7.0,-999.0,47,-99.99,,,-99.99,,2013-04-10 09:43:00,
2013-04-10 05:53:00,72.0,50.0,-100.00,WSW,253,7.0,-999.0,47,-99.99,,,-99.99,,2013-04-10 09:53:00,
2013-04-10 06:03:00,71.0,50.0,-100.00,WSW,245,5.0,-999.0,47,-99.99,,,-99.99,,2013-04-10 10:03:00,
2013-04-10 06:13:00,71.0,50.0,-100.00,WSW,245,5.0,-999.0,47,-99.99,,,-99.99,,2013-04-10 10:13:00,
2013-04-10 06:23:00,71.0,50.0,-100.00,WSW,242,5.0,-999.0,47,-99.99,,,-99.99,,2013-04-10 10:23:00,
2013-04-10 06:33:00,71.0,50.0,-100.00,SW,232,7.0,-999.0,47,-99.99,,,-99.99,,2013-04-10 10:33:00,
2013-04-10 06:43:00,71.0,50.0,-100.00,SW,232,7.0,-999.0,47,-99.99,,,-99.99,,2013-04-10 10:43:00,
2013-04-10 06:53:00,71.0,51.0,-100.00,SW,235,5.0,-999.0,49,-99.99,,,-99.99,,2013-04-10 10:53:00,
2013-04-10 07:02:00,70.0,51.0,-100.00,WSW,246,4.0,-999.0,49,-99.99,,,-99.99,,2013-04-10 11:02:00,
2013-04-10 07:12:00,70.0,51.0,-100.00,WSW,246,4.0,-999.0,49,-99.99,,,-99.99,,2013-04-10 11:12:00,
2013-04-10 07:22:00,70.0,52.0,-100.00,South,189,5.0,-999.0,52,-99.99,,,-99.99,,2013-04-10 11:22:00,
2013-04-10 07:32:00,70.0,51.0,-100.00,SSW,204,5.0,-999.0,51,-99.99,,,-99.99,,2013-04-10 11:32:00,
2013-04-10 07:42:00,70.0,51.0,-100.00,SSW,204,5.0,-999.0,51,-99.99,,,-99.99,,2013-04-10 11:42:00,
2013-04-10 07:53:00,70.0,51.0,-100.00,WSW,256,6.0,-999.0,51,-99.99,,,-99.99,,2013-04-10 11:53:00,
2013-04-10 08:03:00,70.0,51.0,-100.00,WSW,252,6.0,-999.0,50,-99.99,,,-99.99,,2013-04-10 12:03:00,
2013-04-10 08:12:00,70.0,51.0,-100.00,WSW,252,6.0,-999.0,50,-99.99,,,-99.99,,2013-04-10 12:12:00,
2013-04-10 08:23:00,70.0,51.0,-100.00,WSW,241,6.0,-999.0,49,-99.99,,,-99.99,,2013-04-10 12:23:00,
2013-04-10 08:33:00,71.0,50.0,-100.00,WSW,238,6.0,-999.0,48,-99.99,,,-99.99,,2013-04-10 12:33:00,
2013-04-10 08:43:00,71.0,50.0,-100.00,WSW,238,6.0,-999.0,48,-99.99,,,-99.99,,2013-04-10 12:43:00,
2013-04-10 08:52:00,71.0,52.0,-100.00,SSW,193,5.0,-999.0,50,-99.99,,,-99.99,,2013-04-10 12:52:00,
2013-04-10 09:02:00,71.0,52.0,-100.00,SSW,193,6.0,-999.0,51,-99.99,,,-99.99,,2013-04-10 13:02:00,
2013-04-10 09:12:00,71.0,52.0,-100.00,SSW,193,6.0,-999.0,51,-99.99,,,-99.99,,2013-04-10 13:12:00,
2013-04-10 09:23:00,72.0,52.0,-100.00,SSW,193,5.0,-999.0,50,-99.99,,,-99.99,,2013-04-10 13:23:00,
2013-04-10 09:32:00,73.0,52.0,-100.00,SSW,195,5.0,-999.0,48,-99.99,,,-99.99,,2013-04-10 13:32:00,
2013-04-10 09:43:00,73.0,52.0,-100.00,SSW,195,5.0,-999.0,48,-99.99,,,-99.99,,2013-04-10 13:43:00,
2013-04-10 09:53:00,73.0,52.0,-100.00,South,185,6.0,-999.0,48,-99.99,,,-99.99,,2013-04-10 13:53:00,
2013-04-10 10:02:00,74.0,52.0,-100.00,SSW,194,5.0,-999.0,45,-99.99,,,-99.99,,2013-04-10 14:02:00,
2013-04-10 10:12:00,74.0,52.0,-100.00,SSW,194,5.0,-999.0,45,-99.99,,,-99.99,,2013-04-10 14:12:00,
2013-04-10 10:22:00,76.0,52.0,-100.00,SSW,202,5.0,-999.0,43,-99.99,,,-99.99,,2013-04-10 14:22:00,
2013-04-10 10:33:00,77.0,52.0,-100.00,SSW,192,7.0,-999.0,41,-99.99,,,-99.99,,2013-04-10 14:33:00,
2013-04-10 10:42:00,77.0,52.0,-100.00,SSW,192,7.0,-999.0,41,-99.99,,,-99.99,,2013-04-10 14:42:00,
2013-04-10 10:52:00,78.0,51.0,-100.00,South,184,9.0,-999.0,39,-99.99,,,-99.99,,2013-04-10 14:52:00,
2013-04-10 11:03:00,79.0,50.0,-100.00,SSW,212,8.0,-999.0,36,-99.99,,,-99.99,,2013-04-10 15:03:00,
2013-04-10 11:12:00,79.0,50.0,-100.00,SSW,212,8.0,-999.0,36,-99.99,,,-99.99,,2013-04-10 15:12:00,
2013-04-10 11:23:00,81.0,48.0,-100.00,WSW,241,12.0,-999.0,32,-99.99,,,-99.99,,2013-04-10 15:23:00,
2013-04-10 11:33:00,81.0,49.0,-100.00,West,259,11.0,-999.0,32,-99.99,,,-99.99,,2013-04-10 15:33:00,
2013-04-10 11:42:00,81.0,49.0,-100.00,West,259,11.0,-999.0,32,-99.99,,,-99.99,,2013-04-10 15:42:00,
2013-04-10 11:53:00,82.0,50.0,-100.00,West,266,11.0,-999.0,32,-99.99,,,-99.99,,2013-04-10 15:53:00,
2013-04-10 12:03:00,82.0,50.0,-100.00,West,267,11.0,-999.0,32,-99.99,,,-99.99,,2013-04-10 16:03:00,
2013-04-10 12:13:00,82.0,50.0,-100.00,West,267,11.0,-999.0,32,-99.99,,,-99.99,,2013-04-10 16:13:00,
2013-04-10 12:23:00,83.0,50.0,-100.00,West,262,11.0,-999.0,32,-99.99,,,-99.99,,2013-04-10 16:23:00,
2013-04-10 12:33:00,83.0,50.0,-100.00,WSW,254,7.0,-999.0,31,-99.99,,,-99.99,,2013-04-10 16:33:00,
2013-04-10 12:43:00,83.0,50.0,-100.00,WSW,254,7.0,-999.0,31,-99.99,,,-99.99,,2013-04-10 16:43:00,
2013-04-10 12:53:00,84.0,50.0,-100.00,West,276,9.0,-999.0,31,-99.99,,,-99.99,,2013-04-10 16:53:00,
2013-04-10 13:03:00,84.0,50.0,-100.00,WSW,251,8.0,-999.0,31,-99.99,,,-99.99,,2013-04-10 17:03:00,
2013-04-10 13:13:00,84.0,50.0,-100.00,WSW,251,8.0,-999.0,31,-99.99,,,-99.99,,2013-04-10 17:13:00,
2013-04-10 13:22:00,84.0,50.0,-100.00,WSW,244,11.0,-999.0,30,-99.99,,,-99.99,,2013-04-10 17:22:00,
2013-04-10 13:33:00,85.0,50.0,-100.00,WSW,237,9.0,-999.0,30,-99.99,,,-99.99,,2013-04-10 17:33:00,
2013-04-10 13:43:00,85.0,50.0,-100.00,WSW,237,9.0,-999.0,30,-99.99,,,-99.99,,2013-04-10 17:43:00,
2013-04-10 13:53:00,85.0,50.0,-100.00,WSW,248,9.0,-999.0,30,-99.99,,,-99.99,,2013-04-10 17:53:00,
2013-04-10 14:03:00,86.0,50.0,-100.00,WSW,244,10.0,-999.0,30,-99.99,,,-99.99,,2013-04-10 18:03:00,
2013-04-10 14:12:00,86.0,50.0,-100.00,WSW,244,10.0,-999.0,30,-99.99,,,-99.99,,2013-04-10 18:12:00,
2013-04-10 14:23:00,86.0,50.0,-100.00,WSW,237,11.0,-999.0,29,-99.99,,,-99.99,,2013-04-10 18:23:00,
2013-04-10 14:33:00,86.0,50.0,-100.00,SW,230,12.0,-999.0,28,-99.99,,,-99.99,,2013-04-10 18:33:00,
2013-04-10 14:42:00,86.0,50.0,-100.00,SW,230,12.0,-999.0,28,-99.99,,,-99.99,,2013-04-10 18:42:00,
2013-04-10 14:53:00,87.0,50.0,-100.00,WSW,240,11.0,-999.0,28,-99.99,,,-99.99,,2013-04-10 18:53:00,
2013-04-10 15:03:00,87.0,50.0,-100.00,SW,230,10.0,-999.0,27,-99.99,,,-99.99,,2013-04-10 19:03:00,
2013-04-10 15:13:00,87.0,50.0,-100.00,SW,230,10.0,-999.0,27,-99.99,,,-99.99,,2013-04-10 19:13:00,
2013-04-10 15:22:00,87.0,49.0,-100.00,WSW,237,10.0,-999.0,27,-99.99,,,-99.99,,2013-04-10 19:22:00,
2013-04-10 15:33:00,88.0,50.0,-100.00,SSW,208,9.0,-999.0,27,-99.99,,,-99.99,,2013-04-10 19:33:00,
2013-04-10 15:42:00,88.0,50.0,-100.00,SSW,208,9.0,-999.0,27,-99.99,,,-99.99,,2013-04-10 19:42:00,
2013-04-10 15:53:00,88.0,49.0,-100.00,WSW,246,13.0,-999.0,26,-99.99,,,-99.99,,2013-04-10 19:53:00,
2013-04-10 16:03:00,88.0,49.0,-100.00,SW,235,12.0,-999.0,25,-99.99,,,-99.99,,2013-04-10 20:03:00,
2013-04-10 16:12:00,88.0,49.0,-100.00,SW,235,12.0,-999.0,25,-99.99,,,-99.99,,2013-04-10 20:12:00,
2013-04-10 16:23:00,88.0,48.0,-100.00,SW,232,13.0,-999.0,25,-99.99,,,-99.99,,2013-04-10 20:23:00,
2013-04-10 16:33:00,89.0,48.0,-100.00,SW,226,12.0,-999.0,24,-99.99,,,-99.99,,2013-04-10 20:33:00,
2013-04-10 16:42:00,89.0,48.0,-100.00,SW,226,12.0,-999.0,24,-99.99,,,-99.99,,2013-04-10 20:42:00,
2013-04-10 16:53:00,89.0,49.0,-100.00,SSW,199,12.0,-999.0,25,-99.99,,,-99.99,,2013-04-10 20:53:00,
2013-04-10 17:03:00,88.0,49.0,-100.00,South,181,13.0,-999.0,26,-99.99,,,-99.99,,2013-04-10 21:03:00,
2013-04-10 17:13:00,88.0,49.0,-100.00,South,181,13.0,-999.0,26,-99.99,,,-99.99,,2013-04-10 21:13:00,
2013-04-10 17:22:00,88.0,49.0,-100.00,South,182,13.0,-999.0,26,-99.99,,,-99.99,,2013-04-10 21:22:00,
2013-04-10 17:33:00,88.0,49.0,-100.00,South,176,11.0,-999.0,26,-99.99,,,-99.99,,2013-04-10 21:33:00,
2013-04-10 17:43:00,88.0,49.0,-100.00,South,176,11.0,-999.0,26,-99.99,,,-99.99,,2013-04-10 21:43:00,
2013-04-10 17:53:00,88.0,49.0,-100.00,South,179,10.0,-999.0,26,-99.99,,,-99.99,,2013-04-10 21:53:00,
2013-04-10 18:03:00,89.0,49.0,-100.00,SSW,199,11.0,-999.0,25,-99.99,,,-99.99,,2013-04-10 22:03:00,
2013-04-10 18:13:00,89.0,49.0,-100.00,SSW,199,11.0,-999.0,25,-99.99,,,-99.99,,2013-04-10 22:13:00,
2013-04-10 18:23:00,89.0,49.0,-100.00,SSW,196,12.0,-999.0,25,-99.99,,,-99.99,,2013-04-10 22:23:00,
2013-04-10 18:34:00,88.0,49.0,-100.00,South,188,12.0,-999.0,26,-99.99,,,-99.99,,2013-04-10 22:34:00,
2013-04-10 18:42:00,88.0,49.0,-100.00,South,188,12.0,-999.0,26,-99.99,,,-99.99,,2013-04-10 22:42:00,
2013-04-10 18:53:00,88.0,49.0,-100.00,South,186,11.0,-999.0,26,-99.99,,,-99.99,,2013-04-10 22:53:00,
2013-04-10 19:03:00,88.0,49.0,-100.00,South,181,10.0,-999.0,26,-99.99,,,-99.99,,2013-04-10 23:03:00,
2013-04-10 19:12:00,88.0,49.0,-100.00,South,181,10.0,-999.0,26,-99.99,,,-99.99,,2013-04-10 23:12:00,
2013-04-10 19:22:00,87.0,48.0,-100.00,SSW,192,11.0,-999.0,25,-99.99,,,-99.99,,2013-04-10 23:22:00,
2013-04-10 19:33:00,88.0,48.0,-100.00,SSW,200,9.0,-999.0,25,-99.99,,,-99.99,,2013-04-10 23:33:00,
2013-04-10 19:42:00,88.0,48.0,-100.00,SSW,200,9.0,-999.0,25,-99.99,,,-99.99,,2013-04-10 23:42:00,
2013-04-10 19:53:00,87.0,48.0,-100.00,SSW,202,10.0,-999.0,25,-99.99,,,-99.99,,2013-04-10 23:53:00,
2013-04-10 20:02:00,87.0,48.0,-100.00,SSW,207,8.0,-999.0,25,-99.99,,,-99.99,,2013-04-11 00:02:00,
2013-04-10 20:13:00,87.0,48.0,-100.00,SSW,207,8.0,-999.0,25,-99.99,,,-99.99,,2013-04-11 00:13:00,
2013-04-10 20:23:00,87.0,48.0,-100.00,SSW,203,9.0,-999.0,26,-99.99,,,-99.99,,2013-04-11 00:23:00,
2013-04-10 20:32:00,86.0,48.0,-100.00,SSW,204,8.0,-999.0,26,-99.99,,,-99.99,,2013-04-11 00:32:00,
2013-04-10 20:42:00,86.0,48.0,-100.00,SSW,204,8.0,-999.0,26,-99.99,,,-99.99,,2013-04-11 00:42:00,
2013-04-10 20:53:00,86.0,48.0,-100.00,SSW,199,9.0,-999.0,27,-99.99,,,-99.99,,2013-04-11 00:53:00,
2013-04-10 21:02:00,85.0,48.0,-100.00,SSW,200,10.0,-999.0,27,-99.99,,,-99.99,,2013-04-11 01:02:00,
2013-04-10 21:12:00,85.0,48.0,-100.00,SSW,200,10.0,-999.0,27,-99.99,,,-99.99,,2013-04-11 01:12:00,
2013-04-10 21:22:00,85.0,49.0,-100.00,SSW,205,10.0,-999.0,28,-99.99,,,-99.99,,2013-04-11 01:22:00,
2013-04-10 21:32:00,84.0,49.0,-100.00,SSW,208,11.0,-999.0,29,-99.99,,,-99.99,,2013-04-11 01:32:00,
2013-04-10 21:42:00,84.0,49.0,-100.00,SSW,208,11.0,-999.0,29,-99.99,,,-99.99,,2013-04-11 01:42:00,
2013-04-10 21:52:00,84.0,50.0,-100.00,SSW,206,11.0,-999.0,30,-99.99,,,-99.99,,2013-04-11 01:52:00,
2013-04-10 22:03:00,84.0,50.0,-100.00,SSW,213,12.0,-999.0,31,-99.99,,,-99.99,,2013-04-11 02:03:00,
2013-04-10 22:12:00,84.0,50.0,-100.00,SSW,213,12.0,-999.0,31,-99.99,,,-99.99,,2013-04-11 02:12:00,
2013-04-10 22:22:00,83.0,50.0,-100.00,SSW,210,11.0,-999.0,32,-99.99,,,-99.99,,2013-04-11 02:22:00,
2013-04-10 22:32:00,83.0,50.0,-100.00,SSW,207,11.0,-999.0,32,-99.99,,,-99.99,,2013-04-11 02:32:00,
2013-04-10 22:42:00,83.0,50.0,-100.00,SSW,207,11.0,-999.0,32,-99.99,,,-99.99,,2013-04-11 02:42:00,
2013-04-10 22:53:00,82.0,50.0,-100.00,SSW,208,12.0,-999.0,33,-99.99,,,-99.99,,2013-04-11 02:53:00,
2013-04-10 23:02:00,82.0,50.0,-100.00,SSW,212,11.0,-999.0,33,-99.99,,,-99.99,,2013-04-11 03:02:00,
2013-04-10 23:12:00,82.0,50.0,-100.00,SSW,212,11.0,-999.0,33,-99.99,,,-99.99,,2013-04-11 03:12:00,
2013-04-10 23:22:00,82.0,51.0,-100.00,SSW,210,10.0,-999.0,34,-99.99,,,-99.99,,2013-04-11 03:22:00,
2013-04-10 23:33:00,82.0,51.0,-100.00,SW,215,9.0,-999.0,34,-99.99,,,-99.99,,2013-04-11 03:33:00,
2013-04-10 23:43:00,82.0,51.0,-100.00,SW,215,9.0,-999.0,34,-99.99,,,-99.99,,2013-04-11 03:43:00,
2013-04-10 23:54:00,82.0,50.0,-100.00,SW,214,9.0,-999.0,34,-99.99,,,-99.99,,2013-04-11 03:54:00,